Wind_Gust
17 22 27 28 18 15 11 14 13 9 14 14 9 11 11 13 9 8 9 8 6 8 14 12 11 13 20 22 24 24 21 18 17 18 17 19 21 19 20 20 12 15 23 19 18 14 15 15 15 15 15 16 17 16 19 20 18 19 18 15 14 13 14 15 15 15 15 15 13 11 11 11 10 10 9 9 9 9 9 10 11 11 11 9 9 9
16 21 25 13 13 20 18 14 13 13 8 16 14 14 11 9 17 9 5 9 10 10 8 7 10 13 20 23 25 23 20 22 22 21 21 25 24 22 21 19 11 14 17 16 16 15 12 13 13 14 14 16 20 18 19 18 18 17 16 14 14 14 14 14 14 14 13 12 12 12 12 11 11 11 11 11 10 10 9 9 10 10 10 9 9 9
25 31 15 14 16 17 14 13 14 13 12 8 15 12 13 14 9 11 8 8 8 8 7 8 14 13 16 22 22 23 25 26 27 26 27 29 27 24 18 12 13 16 14 15 17 16 13 13 13 14 14 15 15 18 18 17 18 18 17 15 14 14 14 14 13 14 13 11 12 13 13 12 12 7 6 7 7 7 8 8 9 9 8 9 9 9
21 18 18 13 16 20 13 16 16 12 8 12 11 16 19 8 13 20 6 8 10 9 6 10 12 8 9 7 11 21 26 27 26 23 14 17 24 23 18 18 16 18 17 16 15 13 13 12 12 12 14 14 15 16 16 18 19 19 16 16 17 16 14 15 14 12 13 13 12 10 9 7 7 9 8 8 8 7 7 7 7 6 7 8 8 9
16 15 16 17 18 21 21 16 20 21 21 7 9 9 12 9 8 9 8 8 6 6 8 10 7 10 8 17 18 16 15 19 16 23 17 16 16 15 16 17 20 23 22 16 15 13 13 13 12 12 13 14 15 15 16 16 17 16 17 18 19 18 15 15 14 14 13 14 12 13 10 9 10 9 10 10 10 9 9 9 8 7 7 7 8 8
10 15 19 21 19 20 22 21 24 23 19 14 8 12 11 8 6 5 6 7 12 10 7 7 16 20 9 13 21 23 19 18 20 20 17 18 15 15 16 18 18 20 20 22 19 16 12 11 11 11 13 13 14 16 14 14 15 16 18 18 18 17 15 15 15 14 15 16 16 15 16 15 12 12 10 10 9 8 9 10 8 9 9 8 8 8
14 11 20 24 21 17 20 21 17 23 19 19 22 13 11 10 7 6 8 7 11 19 10 7 20 18 10 14 16 17 24 23 20 23 22 20 20 19 19 20 18 19 17 17 19 20 19 13 13 12 13 14 15 15 14 14 15 16 18 18 18 17 15 14 14 14 13 12 12 11 10 9 9 11 10 8 8 8 9 9 8 10 10 10 9 8
17 16 15 18 22 24 20 23 19 19 20 25 12 18 12 11 11 7 10 7 8 9 12 7 11 16 14 15 12 14 20 27 19 22 22 23 21 20 19 19 19 20 21 22 17 17 16 14 12 14 13 13 15 15 14 15 15 17 18 18 15 15 14 11 11 11 10 12 11 12 12 12 12 12 13 10 10 8 7 9 10 10 11 11 11 11
17 19 18 20 18 25 28 14 16 16 23 14 11 18 17 16 11 10 10 7 6 8 19 10 8 16 19 13 8 15 18 24 19 23 24 24 24 23 22 22 22 23 26 23 25 22 18 16 13 12 13 12 14 15 14 16 16 17 16 14 13 14 12 11 11 12 10 10 11 12 15 14 13 12 12 10 8 9 8 10 10 11 10 10 10 11
10 18 18 19 22 24 12 16 22 18 20 8 16 11 11 11 8 11 12 12 7 11 21 15 14 24 15 10 10 10 20 25 26 24 26 26 25 24 24 24 23 21 20 19 19 20 17 14 13 14 14 14 14 15 15 16 16 15 13 15 15 14 13 12 13 13 13 12 11 12 12 13 11 10 10 8 10 10 8 11 10 9 10 11 10 10
8 6 17 22 25 17 17 17 23 19 10 17 21 19 14 10 8 9 7 9 8 18 27 11 14 16 22 14 18 22 24 24 24 24 22 20 21 21 24 25 25 23 21 20 20 20 19 17 18 17 16 16 17 15 16 14 13 12 13 14 16 14 13 13 13 14 13 12 11 12 11 12 12 10 10 11 10 10 9 10 10 10 10 9 10 10
10 12 15 12 14 13 16 17 10 18 20 25 20 19 20 11 9 9 7 7 19 30 10 12 17 16 26 12 12 18 11 23 29 29 28 25 25 25 24 22 23 20 21 22 23 21 22 21 18 18 17 18 18 17 16 15 14 13 14 16 17 13 12 12 13 14 14 14 13 12 11 12 11 10 11 11 10 10 10 10 11 10 9 11 10 11
15 20 9 7 14 21 20 21 14 10 19 22 21 25 27 22 18 20 17 20 30 26 10 7 9 13 31 16 11 20 14 14 20 22 29 30 30 29 25 24 22 20 20 24 24 22 23 21 19 18 19 19 15 17 16 17 14 13 13 15 17 14 12 13 14 15 14 14 13 12 12 12 11 12 11 11 11 11 11 11 11 11 12 12 14 14
13 7 7 11 9 19 23 33 25 21 22 25 32 32 30 29 26 22 28 18 13 12 8 7 9 21 12 11 7 8 7 12 10 13 22 29 28 28 25 22 22 22 20 23 23 22 22 21 19 20 20 19 17 16 15 16 14 12 13 15 18 15 13 14 15 15 16 15 14 13 13 11 11 12 13 13 13 12 11 11 11 12 13 12 14 15
22 22 25 20 25 11 29 20 23 17 21 25 8 26 24 23 29 27 28 31 21 14 11 7 14 19 18 10 8 8 8 10 15 20 25 22 21 22 17 17 20 21 19 23 23 21 21 23 22 21 20 17 15 14 12 12 14 14 13 15 17 16 14 15 15 15 15 14 13 12 12 12 12 13 14 15 13 13 13 12 12 14 14 15 15 16
20 18 11 14 7 18 18 8 17 19 21 11 12 13 16 26 13 19 16 15 14 14 10 15 20 8 9 8 7 8 11 9 11 16 20 18 20 22 19 21 23 20 20 22 21 22 22 24 23 21 18 15 14 13 10 10 13 14 14 15 16 16 15 15 15 14 14 13 14 14 14 14 14 13 13 13 13 13 13 13 14 15 15 15 15 15
16 23 8 11 8 21 19 17 17 25 36 25 15 32 21 14 14 13 5 8 6 7 22 11 11 10 9 9 9 10 13 13 13 17 22 23 23 21 23 18 18 18 19 20 20 21 23 22 19 21 21 16 15 14 10 11 13 15 14 15 17 16 15 15 14 14 14 14 16 16 16 15 15 15 16 15 15 14 13 14 16 16 15 14 15 16
26 16 6 13 14 11 8 23 16 20 14 24 31 24 12 9 12 14 16 8 13 20 22 10 13 10 16 17 14 12 14 16 16 16 21 23 22 24 20 20 20 18 16 17 20 18 19 20 18 18 19 19 18 16 16 14 13 12 12 13 16 16 16 14 14 15 14 16 17 16 16 16 16 16 16 16 15 14 14 14 15 16 17 17 17 16
13 20 13 15 19 15 8 11 17 9 11 24 21 16 33 19 21 10 15 13 17 18 18 12 7 10 16 13 13 16 20 20 21 19 21 24 22 22 24 20 19 25 26 21 23 20 22 20 20 20 18 18 17 17 16 16 16 15 14 14 15 17 16 14 14 14 15 16 16 15 15 15 15 16 16 15 14 13 15 17 17 16 16 17 18 19
9 17 14 8 18 14 16 22 32 28 10 7 13 27 11 13 13 18 22 11 15 10 8 14 11 20 17 16 20 21 24 26 25 25 25 23 24 25 25 22 22 24 17 14 17 20 18 19 19 19 19 17 16 15 14 13 13 15 14 15 16 16 16 16 16 15 16 15 16 15 15 15 15 15 15 14 14 15 17 17 17 17 17 18 18 19
14 7 16 15 7 15 27 32 30 27 26 20 26 27 18 17 9 15 10 13 15 17 14 12 16 16 13 10 18 21 24 27 29 28 23 21 24 25 26 28 25 19 23 23 22 27 24 19 17 18 17 17 15 14 13 13 15 14 14 15 16 17 16 16 16 16 15 15 16 15 15 14 14 14 14 14 15 16 17 17 17 18 17 17 18 18
12 14 13 14 20 26 16 11 10 22 25 26 26 23 18 16 19 26 24 13 12 14 15 14 24 13 12 7 9 15 15 20 22 23 22 21 23 26 25 22 24 28 24 24 20 21 25 24 20 16 18 17 16 16 15 14 15 15 15 15 16 16 16 16 16 16 15 15 15 14 14 14 13 14 14 15 17 17 18 17 17 17 17 17 18 18
13 14 11 14 19 17 10 14 13 20 19 16 23 19 23 18 15 23 25 16 11 9 9 9 6 9 9 9 9 11 17 19 21 23 26 25 25 24 23 24 20 16 25 28 24 22 20 19 21 18 17 17 16 15 15 13 14 14 15 16 16 17 16 16 16 15 15 15 14 14 13 14 15 15 15 17 17 17 17 16 16 17 17 18 17 17
8 21 17 8 11 9 9 8 5 17 17 14 25 16 20 28 27 19 15 14 16 10 10 7 8 12 8 10 8 15 17 17 21 20 27 24 21 24 27 26 25 25 24 21 21 25 26 22 20 22 17 16 15 14 15 15 15 16 16 17 17 18 16 15 15 15 15 15 14 14 14 16 16 16 17 17 18 18 17 18 18 18 18 18 18 18
24 10 16 15 21 20 12 10 11 9 21 29 29 18 17 13 9 7 11 7 20 19 14 13 19 9 8 7 14 19 20 21 21 19 24 26 23 26 28 27 26 27 27 25 22 18 20 22 24 22 20 16 16 15 15 15 15 17 17 17 18 16 15 15 14 15 15 14 14 15 16 16 16 17 17 17 17 17 18 19 19 19 19 19 20 18
12 10 18 22 24 29 32 35 34 29 29 16 13 16 17 21 17 15 20 17 24 11 16 25 15 8 5 11 18 20 21 20 18 20 17 24 28 28 26 27 27 27 25 27 27 24 21 19 19 18 17 18 16 15 15 15 17 18 18 17 15 16 15 14 14 14 14 14 15 16 17 16 15 17 17 17 16 17 18 20 20 19 19 19 18 18
17 7 10 14 14 17 15 14 10 16 12 23 15 21 18 18 20 15 13 14 24 12 16 12 11 13 12 17 20 22 24 24 24 23 26 26 25 28 27 28 27 27 27 28 22 21 20 18 18 20 18 16 16 14 15 17 18 18 18 18 16 15 15 14 14 15 15 15 15 16 16 16 16 17 16 17 17 18 19 20 19 20 19 18 18 19
11 11 10 11 10 12 10 7 7 14 28 21 16 18 15 16 15 17 19 24 15 19 15 11 11 18 19 21 21 24 23 23 22 23 25 26 25 26 27 26 21 27 25 25 23 23 22 20 23 23 19 18 16 15 16 17 18 18 17 18 16 15 14 13 14 15 16 15 15 16 16 16 15 15 16 16 17 18 19 19 19 19 18 19 20 20
16 17 7 9 7 6 8 8 9 6 11 17 20 19 20 19 18 25 24 11 16 19 19 11 16 19 21 29 28 28 29 27 25 23 23 23 23 23 22 22 24 26 27 27 25 21 23 24 21 20 20 18 17 16 16 17 18 17 17 16 16 16 15 14 16 16 16 15 15 15 14 14 13 15 16 17 18 19 20 21 20 19 19 20 20 20
18 12 11 10 9 7 8 8 8 13 9 9 14 20 22 21 23 23 15 12 18 9 9 17 21 11 8 22 24 22 21 25 24 22 23 25 25 24 22 24 25 27 28 27 25 22 19 19 20 19 19 18 17 16 17 17 18 17 17 16 16 16 14 15 16 16 16 15 14 14 14 14 14 16 17 18 20 21 20 20 19 19 19 20 20 19
14 12 12 12 12 7 8 7 8 13 13 16 7 6 13 21 24 21 16 10 11 12 8 15 15 8 7 19 21 19 22 25 26 27 27 25 25 26 26 26 26 27 26 27 26 24 21 20 23 21 19 17 16 15 16 16 17 16 16 16 16 16 15 16 16 16 15 15 14 14 14 14 15 16 18 18 21 21 21 21 19 19 19 20 20 20
11 6 7 11 13 10 8 12 8 10 9 12 9 11 13 13 18 13 19 15 15 15 16 16 12 12 15 24 22 22 24 28 28 28 26 24 26 26 25 25 27 23 24 24 24 23 21 22 23 21 20 19 17 15 15 17 16 17 17 16 16 16 16 17 16 16 15 14 14 14 14 15 15 17 18 19 20 20 20 19 19 19 19 19 20 20
16 14 13 10 12 9 6 8 13 13 14 11 10 10 11 6 8 9 10 6 8 22 20 14 17 18 27 26 27 24 25 26 27 28 27 27 25 26 28 28 26 23 23 22 22 20 21 21 20 20 20 18 17 15 14 17 18 18 16 17 15 16 17 16 15 15 15 14 14 14 14 15 17 18 19 20 19 19 19 19 19 19 19 19 17 18
11 13 9 8 17 8 6 10 7 11 16 16 10 6 9 8 8 12 12 11 8 8 14 15 15 26 26 30 31 32 32 33 31 24 22 28 26 22 23 24 24 25 24 22 23 22 20 19 19 19 17 17 16 16 16 17 20 19 16 17 17 17 17 16 15 15 14 14 14 14 14 15 18 19 18 19 20 19 17 18 20 17 16 16 16 18
13 13 8 8 12 13 7 9 11 8 14 8 8 8 9 9 7 6 7 7 8 7 7 13 25 32 33 31 28 23 21 20 21 24 20 24 27 26 26 24 27 26 26 24 21 19 20 20 20 20 20 17 16 16 18 20 19 18 18 17 18 17 17 16 15 14 14 14 14 14 14 16 19 19 17 16 16 18 19 18 16 17 16 17 19 20
16 14 13 9 8 9 11 10 15 13 7 8 8 7 8 9 10 9 6 8 10 10 11 18 25 26 26 25 23 21 22 19 17 17 22 19 24 31 28 27 26 26 27 23 25 23 23 22 22 20 18 17 18 17 18 19 18 19 18 17 18 17 16 16 15 15 13 15 14 14 14 15 16 17 17 15 16 17 18 19 18 17 16 17 17 18
10 15 15 11 8 13 11 10 11 9 9 7 8 12 21 18 20 17 17 15 15 14 13 23 25 25 23 24 25 25 25 23 18 10 6 20 18 16 29 28 26 23 22 23 25 25 21 20 20 18 19 19 18 19 17 17 19 20 19 18 17 17 16 15 15 14 14 14 14 14 13 13 15 15 15 16 18 18 17 17 17 17 16 17 18 19
6 12 13 16 8 9 13 11 9 10 11 12 14 8 15 7 8 7 9 7 9 14 15 25 29 28 26 27 28 28 25 27 18 16 10 13 18 21 15 19 20 22 25 24 22 22 21 20 20 18 21 21 21 18 16 15 17 19 20 19 16 17 15 15 14 14 14 14 14 13 13 14 15 16 16 16 18 17 17 16 16 16 15 17 18 20
9 11 11 16 12 8 9 15 14 15 19 12 11 9 12 8 10 7 11 12 15 21 22 27 28 31 35 37 34 31 33 32 29 24 20 21 19 23 26 21 22 22 23 24 26 27 23 19 19 20 20 21 21 18 17 17 17 19 17 15 13 13 14 14 13 13 13 14 13 14 14 14 15 16 16 17 16 16 17 16 15 14 15 16 17 18
11 7 9 12 12 9 12 13 13 19 12 6 9 6 9 7 7 9 12 18 18 27 29 31 32 33 30 34 39 40 40 33 34 30 23 26 24 22 29 28 24 23 20 19 19 22 21 21 23 21 21 22 22 19 19 17 18 17 16 15 12 15 15 14 13 13 14 15 14 14 15 14 15 15 16 17 17 16 15 14 15 16 17 18 19 19
8 8 8 17 12 7 8 7 7 13 12 8 8 9 9 8 11 13 18 12 13 27 30 32 38 34 36 37 34 39 14 13 24 31 29 27 26 21 17 25 27 27 26 22 21 18 20 19 21 22 21 22 21 20 19 20 20 18 16 15 16 16 14 13 14 15 15 15 15 16 16 15 16 17 16 16 16 15 16 16 16 16 17 19 20 20
5 8 6 9 12 14 10 13 13 9 10 9 5 10 10 13 12 14 16 8 16 25 26 28 35 35 35 35 14 15 17 30 34 32 32 30 28 24 23 22 22 18 18 20 21 20 20 19 20 21 21 20 22 20 19 20 21 19 17 17 17 15 14 15 15 15 15 16 16 16 16 16 15 15 15 14 15 17 17 16 17 16 17 19 19 20
22 21 13 13 12 11 8 9 6 12 10 13 19 12 6 11 13 8 7 6 13 24 29 28 33 31 30 19 17 23 28 35 34 34 31 30 31 26 24 24 26 27 25 22 19 19 24 23 22 22 21 21 20 19 18 22 21 19 17 20 16 15 15 15 15 16 16 16 17 16 16 15 15 14 13 14 15 16 17 16 17 16 17 17 19 20
8 20 13 11 17 19 12 19 19 12 11 12 13 17 15 10 7 7 10 13 17 23 26 29 25 29 23 23 24 28 30 34 33 33 32 31 31 27 22 20 21 23 23 22 24 23 22 24 23 22 19 19 18 18 19 22 22 19 20 19 15 16 15 15 15 16 17 16 16 15 16 16 15 14 13 13 15 16 17 17 16 17 17 17 18 20
7 10 15 18 14 17 20 14 6 7 7 7 6 6 7 8 7 6 6 17 23 24 21 29 25 22 23 25 26 29 29 31 33 32 32 32 28 25 25 26 26 27 26 25 24 23 23 27 25 23 20 19 18 17 17 19 24 21 20 16 15 16 17 16 16 17 17 16 16 16 15 15 15 15 14 14 15 16 16 16 15 17 16 17 18 18
7 5 6 12 11 7 6 8 8 7 7 7 7 6 8 8 5 6 10 15 13 20 25 26 24 27 25 28 31 26 31 30 35 31 29 29 26 22 22 23 22 23 24 24 24 22 24 25 25 24 23 19 18 17 16 18 22 23 19 16 14 15 17 18 18 18 17 16 15 16 17 18 17 16 16 15 15 15 14 14 15 16 15 15 16 17
6 6 6 12 7 10 13 6 8 7 8 7 8 7 5 6 6 6 10 11 13 14 18 20 24 24 25 28 29 26 29 33 34 29 25 25 26 27 27 28 28 28 28 27 25 25 26 24 25 24 23 21 17 19 19 19 19 20 19 17 15 16 18 19 19 17 16 16 16 15 16 16 16 16 15 14 15 15 14 14 14 14 14 14 14 15
8 6 11 7 8 8 7 6 7 7 7 8 8 6 6 8 9 9 9 12 15 17 20 20 21 23 24 26 30 31 30 30 36 33 28 25 27 27 27 28 27 24 22 24 25 25 24 25 25 24 23 22 19 19 20 20 20 20 18 16 15 17 18 18 17 17 17 16 16 16 16 17 8 13 16 14 14 15 15 15 14 14 14 13 13 13
7 6 8 10 11 7 7 7 6 7 8 7 7 5 6 6 10 12 14 17 19 22 20 18 20 24 22 25 30 33 33 31 34 33 30 25 25 26 27 29 27 27 28 27 25 24 25 24 25 24 23 21 19 20 20 19 19 19 17 15 15 18 19 17 15 15 15 16 17 16 14 14 14 14 14 15 15 14 13 13 13 12 12 11 10 11
8 9 11 11 10 6 13 13 15 14 10 12 7 7 7 7 11 15 15 17 19 22 22 23 15 17 20 26 27 32 35 30 28 30 32 28 27 26 27 26 26 25 24 24 24 24 24 23 24 23 23 20 19 20 20 19 18 16 16 15 15 17 18 16 16 16 15 16 15 14 14 13 13 12 13 13 14 15 15 5 4 9 12 13 7 4
7 9 13 10 14 10 8 11 13 9 9 9 9 9 8 9 13 18 17 18 20 22 24 27 23 20 20 18 20 28 31 34 27 28 29 26 24 22 26 26 27 26 25 25 25 25 24 22 22 23 22 20 19 20 19 18 18 16 15 14 14 18 18 16 16 16 15 15 14 11 11 12 13 12 12 11 12 13 15 16 14 6 8 7 6 8
Wind_Speed
7 10 12 13 9 8 7 8 8 3 8 8 4 6 5 6 4 1 3 1 1 3 7 6 6 7 11 13 14 13 8 10 10 10 10 11 12 11 11 7 6 9 10 9 7 7 3 5 7 7 8 9 9 9 11 11 11 11 9 9 8 7 8 7 7 7 7 6 6 5 5 5 4 4 4 3 3 2 2 2 2 3 3 3 3 3
8 9 12 7 8 13 12 8 7 7 4 10 7 8 4 4 8 3 1 3 2 4 2 2 4 6 12 14 15 12 10 12 13 13 13 15 15 13 12 8 5 7 9 8 9 9 2 3 6 7 7 9 10 10 10 11 11 11 10 9 8 7 7 7 7 7 6 5 4 5 5 5 4 4 4 4 4 3 2 3 3 3 3 3 3 3
11 14 7 8 10 11 9 8 9 8 6 3 7 5 6 5 3 1 3 3 3 2 1 3 7 6 9 13 13 13 13 13 15 15 15 16 17 14 9 7 6 7 7 7 7 10 8 5 5 6 7 7 8 8 10 10 11 11 10 8 8 7 7 7 7 6 5 5 5 6 5 5 5 2 1 2 2 2 2 2 2 2 2 2 2 3
8 8 11 8 9 13 8 10 10 7 4 5 4 7 8 2 5 8 1 3 5 2 2 4 5 2 2 1 6 13 15 13 16 12 4 7 14 13 11 8 6 7 7 4 4 7 8 5 3 4 6 7 7 8 8 9 10 9 9 9 8 8 8 7 6 6 7 7 6 5 4 2 2 3 3 3 2 2 2 2 2 1 1 1 2 2
3 8 10 10 12 14 13 10 13 10 10 2 4 3 5 4 1 2 2 3 1 2 2 4 1 1 3 8 8 8 9 11 5 9 2 5 1 2 4 5 6 12 13 8 5 6 5 5 4 5 6 6 7 8 8 9 9 8 10 11 10 9 8 7 8 8 7 7 6 6 4 4 4 3 4 4 4 3 3 3 2 2 1 1 1 2
4 10 12 13 12 13 13 11 14 12 8 6 4 7 6 2 2 1 2 2 3 3 2 2 4 6 4 7 10 12 8 6 8 7 9 10 9 7 7 8 9 8 6 10 12 10 5 3 4 5 6 7 7 8 8 7 7 8 9 10 10 8 8 8 9 8 7 8 8 7 7 6 5 4 4 3 3 2 3 3 3 3 3 3 3 2
5 6 13 15 13 11 13 11 11 14 9 9 9 8 7 4 2 1 3 1 4 7 3 2 8 3 2 6 8 8 14 13 10 13 13 11 11 10 9 9 9 10 7 4 8 12 12 8 6 6 6 7 8 8 8 7 8 9 10 10 10 9 8 7 8 8 7 6 6 6 4 3 3 4 3 3 2 2 3 3 3 3 4 3 3 3
6 10 9 12 14 14 11 11 9 12 9 9 7 12 7 6 6 2 3 2 1 4 1 2 2 5 4 6 5 8 12 14 10 13 13 13 12 12 11 11 11 11 11 11 10 9 10 10 8 7 7 6 7 8 8 8 9 10 10 10 9 8 7 6 5 5 4 5 5 6 6 5 5 5 5 5 4 3 2 3 4 4 4 5 4 5
11 10 11 13 12 11 13 7 10 10 9 3 6 12 10 10 6 5 4 2 1 3 6 3 3 4 6 2 2 8 10 15 12 14 14 14 15 14 14 13 14 13 14 12 12 13 11 10 7 6 6 7 8 8 8 8 9 9 9 8 7 7 6 5 6 6 4 4 5 6 7 7 6 6 5 4 2 3 3 5 4 4 4 4 4 5
2 11 11 12 11 11 6 9 14 12 9 4 10 6 5 6 3 6 5 5 2 3 9 7 7 7 4 3 3 4 10 14 14 15 14 15 16 15 14 14 14 12 11 8 11 12 11 10 8 8 8 9 8 8 9 10 9 7 7 8 9 8 6 5 7 7 7 6 5 5 6 7 5 4 3 3 4 4 3 5 4 3 4 3 3 4
2 2 8 8 11 8 10 10 14 13 5 10 13 10 6 4 3 3 2 1 2 6 11 5 8 7 7 6 7 9 7 11 13 12 12 10 13 13 13 14 13 13 11 10 12 12 11 11 11 11 10 10 11 9 9 8 7 7 7 8 10 8 6 6 7 8 7 6 5 5 6 6 6 5 4 4 4 3 3 3 4 3 3 3 3 3
5 6 6 2 4 4 10 8 5 9 12 16 7 8 9 4 3 3 2 2 6 11 2 6 9 9 10 3 4 8 5 13 17 18 18 16 16 15 13 12 13 12 12 13 13 13 14 14 12 11 11 12 11 10 9 8 8 7 7 9 10 7 6 6 6 8 7 7 6 6 6 6 5 5 4 4 4 3 3 4 3 3 2 3 3 4
7 9 2 3 4 14 10 11 6 5 10 11 10 12 12 7 3 5 5 6 11 7 3 1 4 5 14 2 1 5 4 3 7 12 16 18 18 17 15 14 12 11 12 13 14 13 13 12 12 12 12 13 10 9 10 9 8 7 7 9 10 8 7 7 8 9 8 7 7 6 6 6 4 5 4 4 4 4 3 3 3 3 3 3 4 5
4 2 2 5 4 9 13 14 10 8 10 13 15 14 13 10 9 7 11 2 2 2 2 1 4 7 4 3 1 2 2 1 3 7 12 16 17 16 13 12 12 13 12 13 13 13 12 12 11 12 12 12 9 9 9 9 7 6 6 8 11 9 7 8 8 8 9 8 7 6 5 5 4 5 5 5 5 4 4 4 4 4 5 4 5 5
9 9 10 12 9 5 14 10 12 8 10 11 4 12 11 8 6 8 8 10 7 4 4 2 5 4 8 3 1 1 2 3 1 6 11 13 13 14 10 10 12 13 12 13 13 13 13 13 14 12 12 9 8 9 7 6 8 7 6 8 10 9 8 9 9 8 9 7 7 6 5 5 5 5 5 5 5 5 5 4 5 5 5 5 5 6
12 2 4 5 2 10 10 3 9 11 10 4 2 2 5 11 2 6 1 4 4 4 2 5 4 2 1 1 2 2 5 4 4 7 12 10 11 14 11 12 12 11 12 12 13 14 14 15 15 13 10 9 8 8 5 5 7 7 7 8 9 9 8 8 8 8 7 7 7 7 8 7 7 6 5 5 5 5 5 5 5 5 6 6 6 6
6 7 4 5 2 14 12 9 8 13 11 9 5 13 8 6 5 4 2 4 3 1 6 3 1 2 1 2 3 5 6 7 7 9 14 14 14 15 14 11 8 8 9 10 11 12 15 14 12 12 12 9 9 8 5 6 7 9 8 8 10 9 8 8 8 7 7 7 9 9 8 7 8 8 7 6 6 5 6 6 6 6 6 6 6 6
10 6 2 6 8 5 3 15 10 12 4 7 11 9 6 4 3 2 4 1 3 7 3 2 5 4 6 3 7 6 8 9 9 10 13 15 15 16 11 11 10 8 3 4 11 11 12 13 12 10 11 12 11 10 10 8 7 7 7 7 9 9 9 8 7 7 7 8 9 9 8 8 7 7 6 6 6 6 6 6 6 6 6 7 7 7
4 7 4 9 12 8 3 6 9 4 3 11 9 8 11 5 10 2 1 4 5 5 3 3 1 2 7 5 5 9 12 13 13 10 13 14 14 14 14 13 11 14 16 13 13 11 10 10 10 10 8 10 10 10 9 9 9 8 8 7 9 10 9 8 6 7 7 8 7 6 7 7 7 6 6 7 7 6 7 7 7 7 7 7 8 8
1 5 4 2 9 7 7 9 14 12 1 3 7 12 1 2 5 6 3 1 3 3 1 5 4 2 6 5 12 12 14 16 15 15 14 15 15 12 14 13 14 11 6 9 8 10 10 11 11 11 10 10 9 9 8 8 7 9 8 9 9 9 9 9 9 8 8 8 8 7 7 7 7 7 7 6 6 6 7 8 8 8 8 8 7 8
3 2 5 4 1 7 10 11 13 13 12 8 11 11 5 1 3 1 2 3 4 2 3 1 3 2 3 3 9 11 14 17 18 16 11 10 13 13 14 15 12 12 14 14 11 14 14 9 7 10 8 9 9 8 7 7 8 8 8 9 9 10 9 9 8 8 7 7 8 8 8 7 6 7 6 7 7 8 8 8 8 8 7 7 8 8
2 4 4 5 7 11 4 4 4 13 14 12 11 10 9 7 8 12 9 4 0 2 2 3 3 3 2 1 3 4 7 11 14 14 12 12 14 15 14 13 15 14 14 15 13 13 15 13 11 9 10 8 8 9 9 8 8 8 8 8 8 8 8 8 8 8 8 7 7 7 7 7 6 6 6 8 9 9 8 8 7 7 7 8 8 9
3 2 3 5 6 7 5 9 8 13 12 9 11 8 11 8 6 8 9 6 4 2 2 2 2 1 3 2 3 4 8 11 13 14 15 15 16 15 14 15 11 10 12 15 15 13 12 11 13 10 9 8 8 9 9 7 7 8 8 9 8 9 8 8 8 7 7 7 7 7 6 7 7 7 8 9 8 9 8 7 8 8 8 8 8 8
4 3 6 2 5 2 2 3 1 10 10 7 13 8 9 13 14 8 2 6 5 4 3 1 1 0 2 4 2 6 9 10 11 12 17 14 12 14 17 17 16 16 15 14 12 14 15 13 12 13 10 8 8 8 8 8 8 8 8 9 9 10 9 8 7 7 7 7 7 7 7 8 8 8 8 8 8 9 9 8 8 8 9 8 8 8
4 1 6 6 6 7 5 4 3 4 8 10 12 7 10 4 4 1 5 1 6 9 7 4 6 2 3 2 5 9 11 13 13 12 15 15 13 16 17 17 15 16 16 16 14 11 9 11 14 12 12 9 8 8 8 8 8 9 9 9 9 8 7 7 6 7 7 7 7 7 7 8 8 8 8 8 8 9 9 9 9 8 10 9 9 8
2 3 6 8 10 12 12 14 13 12 13 3 6 9 10 14 10 7 8 6 9 4 10 9 3 2 0 4 9 12 12 12 11 12 10 15 17 16 15 16 16 16 15 17 17 15 13 9 7 8 9 10 9 8 8 8 8 9 9 9 8 8 7 7 6 7 7 6 7 7 8 8 8 8 8 8 8 9 9 9 10 10 9 9 9 9
3 1 3 2 5 7 4 4 5 8 4 9 9 14 10 12 12 8 2 3 9 5 7 4 2 6 5 9 12 13 14 15 15 14 15 15 16 17 17 16 16 16 16 18 14 12 12 11 11 13 11 9 8 7 6 7 9 9 9 10 9 8 7 7 7 7 7 7 7 7 8 8 8 7 8 8 8 8 9 9 10 10 9 9 9 10
3 3 5 5 3 3 3 3 1 8 16 12 10 11 10 10 9 11 7 7 8 7 5 3 6 9 10 13 13 16 15 14 14 14 16 15 14 15 16 17 17 17 16 15 14 14 13 13 15 14 12 10 8 7 5 6 8 8 9 9 8 7 7 6 7 7 8 7 7 7 7 8 7 8 8 8 8 9 9 9 9 9 9 9 10 10
4 4 2 4 3 2 2 2 4 1 6 9 13 12 13 13 12 15 12 5 10 7 5 6 8 8 11 16 16 15 15 15 16 15 15 14 14 15 14 14 16 17 17 17 16 13 15 13 12 12 13 10 9 9 7 7 8 8 9 8 8 7 7 7 7 8 8 7 7 7 7 6 6 7 8 8 9 9 9 9 9 10 10 10 10 9
4 4 5 5 4 3 1 2 3 8 4 4 9 13 15 14 15 14 8 6 9 4 1 8 12 6 2 12 15 14 13 16 14 12 13 15 16 15 13 15 16 17 18 17 16 14 12 12 12 9 11 11 10 9 9 8 8 8 9 8 8 8 7 7 8 8 8 7 6 6 6 6 7 8 8 9 9 9 9 9 9 10 10 11 10 10
5 2 6 5 5 2 3 1 3 8 8 8 2 2 9 13 15 14 9 5 5 5 2 6 8 3 2 11 13 12 14 15 15 17 17 14 14 16 16 16 16 17 17 17 17 15 12 13 15 13 11 10 10 9 8 8 8 9 9 8 8 8 7 8 8 8 7 7 6 6 6 6 7 8 9 9 9 9 9 9 9 9 10 10 10 10
4 1 2 4 4 4 3 2 4 4 3 5 4 6 7 8 11 6 5 7 8 6 7 8 5 4 7 14 13 14 15 18 18 18 17 14 16 14 17 17 18 15 15 16 16 14 13 15 15 14 12 11 10 9 8 9 9 9 9 8 8 8 8 8 8 7 7 6 6 6 6 6 7 9 9 9 9 9 9 9 9 9 9 8 9 9
5 4 3 3 4 1 1 0 7 8 8 4 5 5 6 2 3 4 5 1 2 13 10 6 6 8 15 15 16 16 16 17 17 17 16 17 16 16 17 18 17 14 14 15 14 13 13 12 12 12 12 11 9 8 8 9 9 9 8 8 8 8 8 8 7 7 7 6 6 6 6 7 8 9 9 9 8 8 8 8 8 8 8 8 7 7
5 6 2 2 4 2 1 4 2 4 6 4 4 1 4 3 3 7 5 6 4 3 1 3 5 15 17 16 19 20 20 18 17 15 13 15 16 14 15 15 15 16 15 14 14 14 12 10 10 10 10 10 9 9 9 9 11 10 8 8 8 9 8 8 7 7 7 6 6 6 6 7 9 9 9 9 8 6 7 8 9 7 7 7 7 9
7 5 2 1 2 4 2 5 2 3 2 3 2 2 4 4 0 0 2 2 3 3 1 6 14 20 21 19 18 15 13 13 14 14 12 15 14 12 12 11 14 17 16 15 13 12 12 13 12 12 11 10 9 9 9 10 10 9 9 8 9 8 9 8 7 7 6 6 6 6 6 8 10 10 9 7 6 7 8 8 7 8 7 8 9 10
5 4 3 2 2 2 1 2 2 1 2 1 1 2 3 3 5 4 1 4 6 5 5 9 16 16 17 15 13 12 12 12 10 10 12 10 13 17 16 14 16 16 16 14 15 14 14 14 13 12 10 9 10 9 9 10 9 10 9 9 9 8 8 8 7 7 6 6 6 6 6 7 8 9 9 7 7 8 8 8 8 8 7 7 8 8
5 4 3 3 3 2 2 4 1 3 2 2 2 5 9 7 10 8 6 7 9 7 7 12 15 16 13 12 12 13 14 12 9 4 3 12 11 8 13 17 17 15 14 14 15 15 13 12 12 11 11 10 10 10 9 9 10 10 10 9 8 8 8 8 7 6 6 6 6 6 6 6 6 7 7 6 8 8 8 8 9 8 7 8 8 9
1 3 2 5 1 0 4 3 1 2 3 3 7 3 9 2 3 1 2 1 4 8 8 14 18 18 17 17 16 15 15 13 10 8 5 8 9 12 9 8 11 14 15 15 13 13 13 12 11 10 12 13 12 11 8 8 9 10 11 10 8 8 8 7 7 6 6 6 6 6 6 6 6 7 7 7 8 9 8 8 7 7 6 8 8 9
3 5 3 2 3 1 2 5 2 4 2 1 2 2 6 2 4 2 1 4 7 13 13 17 18 18 22 21 19 17 13 15 14 11 10 12 11 12 16 13 13 13 13 13 16 17 14 12 12 12 12 13 13 10 10 10 10 10 9 8 7 7 8 7 6 6 6 6 6 6 6 6 6 7 7 8 8 7 8 8 7 6 6 7 8 8
5 1 1 2 3 2 3 4 4 2 1 1 3 2 4 3 3 3 3 4 10 16 17 19 19 18 17 21 24 19 18 14 14 14 13 14 14 13 16 16 12 12 12 12 10 11 12 13 14 13 13 14 13 11 11 10 10 11 9 8 6 7 8 7 6 6 6 7 7 6 6 6 7 7 7 8 8 7 7 6 7 7 8 8 8 8
1 2 0 4 3 2 5 1 1 2 4 1 4 5 4 4 3 3 5 1 6 16 18 19 24 22 22 21 17 18 6 5 11 17 18 17 16 13 10 14 15 16 16 14 12 12 11 11 11 12 13 12 12 11 10 11 11 10 9 8 8 8 7 7 6 7 7 7 7 7 7 6 7 8 8 7 7 7 7 7 7 8 8 9 9 9
1 2 1 1 4 4 2 3 2 1 1 4 0 3 5 5 3 3 2 2 6 15 16 17 22 22 22 22 7 6 8 15 22 20 20 19 16 13 12 11 13 11 11 12 14 12 11 11 12 13 13 12 12 11 10 11 12 10 9 9 9 8 7 7 7 7 8 8 8 7 7 7 7 7 6 6 7 8 8 7 8 7 8 8 9 11
6 3 3 3 1 2 1 2 2 3 2 7 12 6 1 2 1 2 2 1 6 14 17 17 19 19 19 10 8 12 15 19 22 21 20 18 16 16 14 15 17 17 15 13 12 12 14 12 12 12 13 11 11 10 10 13 13 11 9 10 9 7 7 7 7 8 8 8 8 8 8 7 8 6 5 6 7 8 8 7 8 8 8 9 10 10
1 3 1 1 4 2 2 3 3 1 3 7 5 2 5 1 2 1 3 4 9 12 14 16 15 17 12 11 14 15 18 19 19 21 20 19 20 17 13 11 12 14 14 13 14 14 14 13 13 12 11 10 10 10 10 12 12 11 11 11 7 8 8 8 8 8 8 7 7 7 7 7 7 6 6 6 7 8 8 8 8 8 7 8 8 9
2 1 1 3 5 2 2 1 2 2 2 2 1 1 3 3 2 1 1 5 11 12 12 14 14 11 12 14 15 16 16 18 19 20 20 19 18 15 15 15 16 17 16 15 15 14 14 15 15 13 12 10 11 9 9 10 14 13 12 8 8 8 9 8 9 8 8 8 8 7 7 7 7 7 6 6 7 8 7 8 7 8 7 8 8 8
3 0 1 1 1 2 1 3 4 2 2 3 2 1 3 3 1 2 4 6 7 11 14 13 11 13 13 15 16 13 16 18 21 18 18 16 14 13 14 14 13 14 15 15 14 13 14 15 15 15 14 11 11 9 9 10 13 14 11 8 7 8 9 9 10 9 8 8 7 7 8 9 9 8 8 7 7 7 6 6 6 7 7 7 7 7
1 1 1 1 3 4 2 2 2 2 3 3 3 3 1 2 2 1 4 5 6 7 9 12 14 14 15 16 16 15 18 20 20 17 15 14 15 16 17 17 17 17 17 17 15 15 15 15 14 14 14 13 10 10 10 11 10 11 10 9 7 8 9 10 10 9 8 8 8 7 8 8 7 7 7 7 6 6 6 5 6 6 6 6 6 7
3 1 1 2 2 1 1 2 3 3 3 3 3 2 2 3 4 4 4 6 8 9 11 12 13 13 13 14 18 19 19 19 20 17 14 13 16 16 16 16 17 15 13 15 16 16 15 14 15 15 14 12 10 10 11 11 11 10 10 8 7 9 10 9 9 9 8 8 7 7 8 8 6 7 7 6 6 6 6 6 6 6 6 5 5 5
2 2 2 4 2 1 2 3 1 2 3 1 1 0 1 1 4 6 8 10 11 13 12 11 12 13 12 14 17 18 18 17 19 19 16 13 14 15 15 16 17 17 17 17 15 15 14 14 15 15 14 12 10 11 11 11 10 10 10 8 8 9 10 8 9 8 8 8 8 7 6 6 6 6 6 6 6 6 5 5 5 5 5 4 4 4
2 3 5 4 2 1 3 5 8 4 3 5 2 2 2 2 6 9 8 10 12 13 13 12 8 8 11 15 17 19 20 16 16 19 20 15 14 16 17 16 15 15 15 15 13 15 15 15 15 14 14 11 10 11 11 11 9 8 8 7 7 9 9 8 8 8 7 7 7 6 6 6 5 5 5 5 6 6 6 4 4 5 4 5 5 4
1 3 5 1 0 0 2 4 6 3 4 3 4 4 3 3 7 10 10 11 12 14 14 14 13 10 9 9 13 17 18 18 17 17 18 15 13 12 13 16 17 15 14 15 15 15 15 14 14 14 13 11 10 11 11 10 9 8 7 7 7 9 9 8 7 7 7 6 6 4 5 5 5 5 5 4 5 6 7 7 6 6 7 7 5 6
Wind_Direction
150 172 189 200 190 147 138 168 156 143 156 139 130 164 167 169 173 306 284 199 283 208 216 205 190 173 167 181 200 201 189 202 205 186 195 195 197 204 206 194 117 99 95 81 46 38 54 148 145 149 149 149 154 163 159 159 157 155 149 138 139 137 140 140 143 145 144 144 141 141 140 133 138 146 148 157 174 181 172 208 228 234 237 240 233 218
197 195 209 166 142 155 158 138 105 97 146 152 157 174 169 207 182 139 125 331 327 235 140 122 161 179 175 182 197 193 189 201 203 194 201 201 204 211 207 185 131 126 112 115 115 110 43 269 151 144 140 146 158 157 157 161 157 156 148 137 137 143 151 154 155 149 156 162 154 144 142 136 142 153 169 174 173 187 196 217 225 226 227 226 227 220
196 211 132 139 145 146 140 138 146 134 140 123 170 156 155 186 319 316 245 315 325 264 151 129 187 186 177 182 191 194 198 206 204 200 199 202 205 209 202 182 132 133 131 114 136 135 143 216 164 143 144 157 162 158 160 159 155 152 155 143 145 150 154 160 156 156 152 147 138 130 131 142 135 153 119 106 117 159 184 193 209 224 224 224 219 217
193 205 153 144 136 133 149 157 160 157 149 147 125 171 184 103 180 191 100 356 28 354 324 148 190 169 88 114 209 199 202 209 209 214 235 231 210 210 200 183 160 118 92 86 159 125 131 184 160 147 154 155 155 159 157 161 157 152 157 151 153 157 158 153 153 145 139 131 119 100 116 103 92 117 137 130 143 149 180 168 170 178 224 242 237 209
165 117 144 137 148 149 153 165 166 175 195 174 181 145 140 155 171 359 129 314 318 89 42 99 147 218 169 176 200 229 218 218 68 47 344 297 265 119 120 159 151 125 133 150 112 89 115 166 174 166 168 163 160 158 156 159 156 151 157 157 157 153 150 150 147 146 139 132 129 126 112 111 114 127 130 138 116 91 97 100 90 79 101 141 164 189
177 159 142 151 161 152 151 170 178 173 183 179 230 205 181 172 177 166 21 324 199 186 82 236 214 225 159 196 196 193 195 200 125 177 231 220 202 159 169 118 127 125 140 155 146 127 114 254 176 168 164 168 160 156 150 145 148 148 150 151 147 143 148 150 149 149 151 148 141 142 137 138 138 132 146 131 101 75 64 74 82 98 105 118 127 139
156 152 172 162 156 158 160 170 178 171 179 174 199 187 192 197 158 90 287 227 181 213 136 314 231 206 123 204 209 197 195 191 150 195 211 211 205 191 182 152 157 162 161 173 149 141 146 191 195 171 169 162 160 151 144 138 141 140 141 144 146 145 140 136 139 145 141 138 143 140 144 152 157 145 106 90 89 92 85 80 74 73 81 91 99 86
150 158 185 162 161 166 164 179 187 187 153 196 124 169 167 168 182 166 117 239 315 344 287 169 236 248 219 209 212 191 197 183 163 197 199 203 204 198 192 175 173 177 181 175 163 144 147 162 176 173 161 154 150 145 140 133 133 136 140 135 124 122 126 123 127 123 119 124 120 108 108 115 120 121 123 123 109 104 101 79 62 66 54 45 51 67
152 161 174 170 169 176 188 146 139 180 170 153 158 158 172 175 178 160 206 217 16 337 240 152 139 220 233 168 49 176 192 200 178 200 206 205 205 199 190 182 183 186 192 176 158 157 154 152 162 150 146 138 136 136 130 125 123 117 107 104 97 96 95 93 96 99 88 94 100 109 125 120 120 124 125 124 111 99 82 75 60 56 56 52 47 45
292 169 170 163 170 189 125 140 160 169 160 155 152 147 135 150 133 187 201 235 267 250 245 199 174 230 227 165 168 176 203 204 195 201 208 207 203 198 191 191 188 188 186 170 150 143 138 137 139 145 132 117 112 107 106 104 108 101 97 98 100 95 90 89 91 91 91 95 100 106 118 122 121 118 111 99 87 71 66 76 64 59 50 37 44 39
119 192 164 166 190 150 148 159 162 176 126 124 136 132 133 126 132 67 42 146 192 244 243 149 179 214 259 183 190 170 197 193 192 204 213 199 206 207 201 192 181 185 178 170 149 139 134 124 128 136 122 115 112 105 101 95 94 95 94 99 96 93 93 93 93 96 96 93 93 102 104 107 109 108 105 103 84 74 65 55 50 39 39 32 30 16
139 130 162 220 129 114 143 148 188 156 136 143 144 139 129 103 122 155 143 198 219 242 146 161 187 186 235 180 219 210 203 201 184 192 201 191 197 203 200 196 188 177 172 161 145 137 128 122 131 129 123 120 114 110 112 113 110 106 108 108 101 90 95 98 99 97 92 90 86 85 87 88 84 90 92 88 84 62 46 27 19 19 34 33 30 19
149 177 124 130 182 144 156 142 174 152 167 167 151 153 166 161 147 186 170 199 214 231 83 72 152 175 231 239 71 239 221 1 230 202 191 189 195 197 195 188 178 172 163 162 146 138 136 136 134 126 121 120 113 119 115 114 112 110 111 112 107 101 102 97 97 93 89 85 83 86 88 89 86 82 83 82 64 50 48 57 59 46 44 27 12 12
136 358 187 149 180 179 161 170 159 178 188 176 172 171 175 167 181 196 201 220 312 95 223 357 145 246 38 220 158 234 50 305 295 207 184 191 194 194 190 178 172 170 162 158 146 140 137 135 131 128 127 124 117 119 117 117 112 113 116 112 107 108 105 102 92 87 83 78 78 79 84 87 88 76 67 67 70 64 60 51 52 46 22 16 17 8
150 167 197 163 187 160 184 185 169 159 162 187 146 178 194 178 176 189 194 199 210 191 127 91 163 215 186 131 28 201 165 132 137 150 161 171 171 177 166 171 172 168 157 155 143 139 139 137 135 131 128 123 120 116 113 117 125 122 112 109 112 106 94 89 86 85 87 85 78 73 69 67 74 78 76 68 60 55 51 46 47 40 25 20 9 5
179 89 86 191 76 164 180 100 144 143 178 183 153 85 166 201 134 209 185 217 158 156 125 175 213 5 114 70 109 144 137 103 131 144 142 137 151 161 166 174 175 166 156 156 144 137 140 138 135 129 122 118 108 100 100 114 114 107 105 99 94 91 85 83 85 84 85 82 78 70 68 65 66 69 71 67 60 60 54 52 44 36 23 13 1 2
119 180 117 196 46 177 172 155 178 162 183 171 165 198 199 93 109 92 82 31 50 30 233 109 191 199 246 211 127 155 149 148 146 156 161 160 154 162 175 162 150 141 144 149 143 142 143 140 134 130 124 113 104 103 97 93 99 107 107 105 97 90 83 80 81 84 82 84 79 70 66 65 65 64 62 63 60 57 52 47 38 23 15 9 8 3
165 134 123 171 189 231 171 173 174 198 122 118 203 191 82 50 17 171 204 123 207 215 214 147 190 151 169 204 145 153 166 150 168 169 173 166 166 168 158 149 135 114 49 174 148 143 138 129 128 122 120 127 126 125 116 103 94 91 87 97 104 98 93 85 80 79 80 82 77 72 68 64 63 65 64 61 54 49 49 45 34 20 15 14 9 6
168 147 178 194 189 171 126 192 179 222 289 193 192 123 174 186 210 177 128 180 184 202 218 176 128 213 209 164 148 180 178 173 176 169 169 169 171 167 159 154 156 156 165 178 157 129 120 113 114 114 109 109 106 103 103 103 100 94 88 83 90 92 91 92 88 84 77 73 73 70 66 62 62 60 60 55 53 53 49 40 30 29 26 19 15 10
225 153 145 243 203 143 165 183 197 184 158 351 128 177 12 207 203 160 208 33 199 211 164 212 141 228 196 178 189 190 190 180 173 179 183 174 171 160 160 153 159 149 71 66 68 83 83 111 122 117 117 111 105 99 95 91 91 96 97 97 97 94 92 89 86 82 78 72 75 75 70 61 57 55 54 52 51 52 46 40 37 33 29 25 19 16
156 2 168 151 110 151 193 194 201 171 168 165 189 182 182 238 345 1 87 211 205 172 202 272 240 196 170 204 206 196 186 183 179 181 171 156 164 162 159 146 131 105 104 101 99 104 99 93 101 107 103 98 95 88 88 91 94 97 99 96 94 94 91 86 83 82 78 79 74 72 67 64 59 58 59 58 55 53 47 44 40 35 32 28 27 20
109 182 193 144 176 198 176 86 131 167 183 186 188 188 185 142 161 181 201 89 187 184 187 175 251 70 98 54 292 256 178 176 176 170 149 157 155 155 151 130 122 121 124 127 124 121 121 125 116 105 106 101 101 103 100 99 101 98 94 95 95 90 87 89 83 83 82 77 73 71 71 67 63 58 54 52 48 47 46 43 40 36 34 34 30 25
165 126 135 179 190 176 123 166 195 185 186 186 187 185 182 189 180 192 208 170 107 60 78 29 336 97 58 338 282 246 179 172 172 153 149 150 150 142 127 123 121 117 131 130 124 115 113 120 118 115 110 106 103 106 110 108 99 100 101 96 90 92 87 88 89 87 85 81 76 72 69 66 59 52 50 49 49 45 43 40 39 36 35 32 31 28
161 154 176 100 79 243 313 348 287 186 168 176 205 186 178 198 196 208 126 107 186 132 204 177 264 358 52 341 257 170 168 162 162 147 146 137 128 128 127 132 129 123 121 118 123 131 135 132 124 125 121 114 112 112 109 104 105 104 98 98 98 96 96 93 91 89 87 83 76 68 63 57 54 50 48 50 46 43 40 38 40 39 38 35 31 27
175 273 187 161 140 167 168 131 163 220 197 201 195 170 197 115 92 90 97 176 206 193 183 188 227 194 46 342 149 146 148 150 149 148 142 132 131 131 131 130 128 126 127 127 123 115 110 128 132 132 129 121 113 109 109 111 113 108 103 100 99 97 94 92 89 87 82 79 74 62 60 61 55 51 48 47 44 42 41 41 42 41 39 36 32 28
224 141 173 188 166 170 179 187 192 186 198 171 179 156 183 179 162 149 193 176 216 129 182 207 197 32 101 160 152 150 145 137 133 134 135 136 135 132 129 130 132 132 132 132 130 125 125 119 100 110 114 115 109 108 109 111 111 104 98 94 95 97 94 88 84 83 78 71 70 64 64 60 56 51 48 46 45 43 43 44 45 43 39 34 33 29
162 124 192 169 193 199 188 40 64 94 90 193 192 184 185 196 176 195 87 175 211 139 195 190 138 147 182 180 166 161 154 148 142 138 141 140 136 134 134 135 136 135 134 133 128 124 122 117 114 117 100 89 90 93 101 110 104 99 99 93 89 91 91 85 83 78 74 69 68 65 59 58 54 52 50 49 47 47 47 47 45 43 40 37 36 34
120 194 202 185 208 180 136 165 134 190 181 191 171 189 177 185 192 194 197 212 99 120 216 147 169 151 194 178 181 168 159 147 143 142 140 139 136 136 137 135 136 135 135 134 128 126 124 118 119 115 110 105 102 98 93 95 95 97 96 96 95 93 89 85 81 76 71 67 66 63 61 59 60 58 57 54 53 53 53 51 48 43 41 39 38 36
150 200 194 166 209 99 188 253 160 264 216 175 182 175 180 189 191 201 205 143 171 206 215 148 177 193 184 190 182 175 161 153 145 141 139 132 129 134 135 134 136 137 139 140 139 134 135 131 135 129 120 122 123 120 119 107 99 95 92 94 94 89 85 84 81 76 71 68 64 64 64 65 59 62 61 57 56 57 55 53 49 46 44 41 40 37
158 212 172 183 154 122 73 228 196 189 155 180 191 179 183 181 198 204 188 167 203 213 6 169 179 184 181 185 174 162 149 145 141 130 129 135 142 142 135 139 142 144 144 142 142 139 135 127 128 122 118 120 123 124 122 115 107 101 99 98 93 88 83 82 76 75 72 68 64 62 63 63 64 65 63 58 57 57 56 53 50 47 46 44 43 41
205 200 159 154 189 161 10 27 165 188 168 172 202 279 195 187 194 200 176 140 93 65 105 146 155 170 240 158 144 136 139 140 141 147 148 143 142 146 146 145 147 148 146 144 143 140 125 124 135 132 127 121 123 127 121 112 106 101 98 97 94 88 85 83 78 72 70 68 63 64 62 63 61 65 62 60 59 58 59 57 56 53 50 48 45 42
203 197 101 146 193 185 42 48 108 142 149 141 157 179 177 184 193 177 183 178 178 144 139 128 146 187 168 147 135 141 144 149 155 154 152 154 152 147 148 150 151 146 138 141 139 135 136 139 139 137 133 129 125 123 121 116 111 106 107 100 94 91 87 80 76 75 72 67 66 64 63 63 65 64 63 63 62 62 64 64 61 56 52 50 48 44
177 135 158 158 196 113 25 330 105 139 122 151 209 207 195 228 26 62 22 139 227 145 136 162 204 159 157 144 144 152 155 155 156 161 157 157 157 153 150 151 149 137 133 133 139 140 139 136 135 132 130 129 127 119 114 114 109 108 104 98 98 93 85 80 77 75 71 64 66 66 64 67 68 67 67 66 68 68 68 63 58 56 51 47 42 42
155 162 155 150 190 143 249 106 118 158 181 192 48 113 199 217 205 176 172 180 186 216 176 6 113 134 147 153 161 162 164 170 161 163 154 153 154 152 148 144 140 135 135 144 141 136 131 127 124 124 124 122 120 115 111 105 110 113 101 103 97 92 88 88 79 76 74 71 69 70 69 71 72 72 73 76 77 67 64 65 60 51 46 43 40 47
163 134 113 154 181 156 193 127 123 191 209 55 222 209 206 198 106 316 39 206 205 215 190 128 144 157 169 169 165 158 143 142 148 148 151 153 144 141 134 133 137 143 146 140 134 130 130 130 127 122 119 118 116 114 110 110 114 110 104 99 94 90 92 87 85 78 76 74 72 70 72 77 79 79 81 81 71 66 61 59 60 53 48 51 51 52
166 139 147 78 36 83 157 85 165 220 65 251 317 179 137 174 206 171 242 205 207 199 187 152 164 157 158 153 142 143 140 136 127 138 149 155 157 149 149 152 152 148 144 146 139 137 136 137 136 132 123 119 116 113 110 111 113 105 97 95 92 92 89 88 82 78 76 75 69 70 72 78 83 84 83 78 69 65 64 60 54 53 51 51 51 51
171 116 144 98 313 169 129 163 259 335 275 79 327 208 181 171 183 183 192 204 183 188 180 154 154 151 143 121 118 125 127 120 110 72 146 160 159 156 150 150 150 144 136 135 135 134 133 129 122 118 117 111 107 109 109 112 111 108 102 92 90 92 90 86 82 79 78 74 71 70 70 77 83 83 78 70 71 67 63 60 54 51 50 56 54 51
156 201 140 139 294 202 150 150 202 233 259 242 220 276 186 352 172 308 17 132 183 177 180 158 155 147 136 134 133 131 130 125 142 170 171 154 141 137 114 98 110 118 127 125 118 117 119 120 118 116 114 110 109 109 106 105 103 101 99 96 95 94 87 85 83 80 76 75 75 74 75 77 82 83 78 74 71 68 65 62 60 56 48 56 56 53
76 79 4 167 135 154 146 162 181 206 235 232 249 188 163 167 162 201 185 248 166 171 173 165 156 152 147 144 142 141 143 160 179 175 166 152 138 133 127 127 123 123 126 129 132 130 130 129 124 119 114 115 114 115 112 105 95 85 82 85 85 89 91 87 85 83 84 83 81 81 79 78 78 79 77 74 66 63 65 60 58 57 56 58 58 56
95 31 133 102 143 184 138 165 193 216 220 137 216 209 191 128 121 218 176 208 160 172 168 165 158 156 158 155 155 159 164 168 181 180 155 146 135 132 130 126 114 107 106 110 109 120 124 124 120 120 118 118 118 117 114 107 95 96 100 93 99 95 93 90 92 92 91 90 85 83 82 78 77 73 74 74 69 64 59 59 60 56 57 55 56 56
43 88 349 183 139 144 162 75 17 262 263 196 188 170 152 179 213 182 169 9 156 168 171 168 165 166 163 160 168 173 182 36 99 116 129 130 131 129 124 131 132 136 135 133 129 127 124 126 123 122 119 119 122 119 113 109 108 106 106 111 108 98 98 102 102 98 94 92 90 88 84 80 77 77 72 72 73 70 63 58 59 57 58 61 59 57
46 95 51 81 164 155 152 192 215 296 236 133 142 143 156 161 170 184 52 299 176 173 172 174 166 166 169 170 154 59 95 108 113 125 132 136 129 121 120 112 109 100 114 126 133 130 122 116 112 112 114 120 121 120 119 117 110 110 115 107 101 105 109 109 106 103 101 94 91 88 82 80 75 71 72 70 75 74 69 61 59 56 61 63 62 61
167 161 178 161 102 50 69 127 85 219 166 154 132 107 269 228 83 15 286 251 197 173 169 170 169 168 163 133 104 119 116 122 129 133 134 129 129 130 128 129 131 134 138 137 135 129 125 123 124 122 122 123 123 125 122 117 113 115 111 104 109 115 111 109 107 104 99 94 90 85 81 76 74 72 70 69 71 75 71 66 63 58 57 62 65 62
324 173 135 258 226 131 132 158 192 329 118 175 184 189 184 145 40 223 161 131 166 170 168 166 166 166 139 121 133 131 130 126 127 130 131 136 140 137 129 129 132 132 133 134 135 137 131 123 121 121 122 123 123 124 127 121 117 114 110 111 118 112 110 108 106 102 94 90 88 87 83 80 74 70 68 69 73 72 70 65 64 60 56 55 61 63
46 302 237 185 182 187 178 182 25 327 305 2 45 331 298 298 288 218 68 140 158 166 165 164 158 138 121 128 127 130 127 132 134 137 136 141 141 137 137 143 143 142 142 140 141 138 132 130 128 125 123 123 125 127 126 123 118 115 113 122 124 121 117 112 107 100 97 97 94 89 87 78 74 70 63 59 60 67 67 64 62 66 56 61 59 60
347 134 245 93 176 224 245 235 300 303 329 345 6 306 302 330 22 238 156 136 162 162 168 157 127 123 130 130 126 130 133 137 137 139 134 137 139 141 137 133 131 133 134 134 137 135 129 126 125 126 125 125 128 126 122 120 122 121 125 130 128 124 120 113 106 101 99 97 92 92 93 87 80 71 66 65 63 64 59 60 61 64 61 61 63 61
298 141 333 83 95 145 222 135 283 281 327 323 331 341 346 309 328 294 143 132 120 111 115 122 135 138 139 134 130 134 136 143 140 140 134 135 138 139 142 143 146 146 145 143 138 130 129 128 127 127 127 127 132 130 127 121 116 120 128 131 132 124 115 106 104 102 101 99 98 91 86 84 85 83 71 68 72 67 61 56 61 61 58 55 59 64
146 223 57 82 129 205 357 336 301 307 304 317 304 320 77 27 50 43 70 95 108 112 120 129 130 137 139 135 138 141 144 146 141 143 138 138 142 146 145 143 141 138 136 133 134 134 131 131 129 130 130 131 136 133 130 125 126 129 130 132 132 122 113 108 106 106 102 99 95 93 91 88 75 80 79 63 59 64 64 56 52 56 43 37 24 37
0 247 193 156 131 285 301 282 278 307 283 282 330 254 359 100 104 97 108 114 117 119 124 132 143 144 143 137 140 139 141 150 147 142 138 144 142 143 144 142 145 143 140 140 139 136 133 131 132 133 133 135 139 136 133 132 131 133 134 137 135 124 113 108 107 105 103 99 95 87 81 80 77 77 81 82 72 60 43 41 43 52 64 42 18 9
202 149 129 144 102 216 215 181 174 150 185 191 212 208 166 164 131 119 120 123 126 127 134 131 128 135 133 140 144 145 145 151 151 143 144 148 146 140 139 136 136 137 136 134 135 132 129 132 132 133 133 138 142 140 137 137 135 135 138 140 135 124 118 119 116 111 106 103 99 97 96 95 90 84 81 84 89 92 83 55 31 7 39 67 49 42
307 152 181 165 164 353 18 157 176 340 27 60 131 139 155 165 141 137 140 140 141 142 141 134 132 131 130 138 150 148 145 149 150 147 141 140 133 126 130 136 139 138 135 136 131 132 132 133 133 132 135 142 145 140 140 140 141 139 139 143 140 131 127 127 120 115 112 109 101 82 98 107 102 89 87 86 95 97 99 97 83 70 53 62 75 67